Temperature
19 19 18 18 18 19 19 18 18 18 18 18 18 18 17 17 17 17 17 17 16 16 16 16 16 16 16 16 15 15 15 15 15 15 14 14 14 14
19 19 18 18 18 18 18 18 18 18 18 18 18 18 17 17 17 17 17 17 16 16 16 16 16 16 16 15 15 15 15 15 15 15 15 14 14 14
18 18 18 18 18 18 18 18 18 18 18 18 18 18 17 17 17 17 17 16 16 16 16 16 16 16 16 15 15 15 15 15 15 14 14 14 14 14
18 18 18 18 18 18 18 18 18 18 18 17 17 17 17 17 17 17 16 16 16 16 16 16 16 16 16 15 15 15 15 15 14 14 14 14 14 14
18 18 18 18 18 17 17 17 17 17 17 17 17 17 17 17 17 17 16 16 16 16 16 16 16 16 15 15 15 15 15 14 14 14 14 14 14 14
18 17 17 17 17 17 17 17 17 17 17 17 17 17 17 17 16 16 16 16 16 16 16 16 16 15 15 15 15 15 15 14 14 14 14 14 14 14
18 18 17 17 17 17 17 17 17 17 16 16 16 16 16 16 16 16 16 16 16 16 16 15 15 15 15 15 15 15 15 14 14 14 14 14 14 13
18 18 17 17 17 17 17 17 16 16 16 16 16 16 16 16 16 16 15 15 15 15 15 15 15 15 15 15 15 15 14 14 14 14 14 14 13 13
17 17 17 17 17 17 17 16 16 16 16 16 16 16 16 15 15 15 15 15 15 15 15 15 15 15 15 15 15 14 14 14 14 14 14 13 13 13
17 17 17 17 17 16 16 16 16 16 16 16 16 16 15 15 15 15 15 15 15 15 15 14 14 14 14 14 14 14 14 14 14 14 13 13 13 13
17 17 17 17 16 16 16 16 16 15 15 15 15 15 15 15 15 15 15 14 14 14 14 14 14 14 14 14 14 14 14 14 14 13 13 13 13 13
17 17 17 16 16 16 16 16 15 15 15 15 15 15 15 15 15 15 14 14 14 14 14 14 14 14 13 14 14 14 14 13 13 13 13 13 12 12
16 16 16 16 16 16 16 15 15 15 15 15 15 15 15 15 15 14 14 14 14 13 14 14 14 13 13 13 13 13 13 13 13 13 13 12 12 12
16 16 16 16 16 16 15 15 15 15 15 14 14 14 14 14 14 14 14 14 14 14 14 13 13 13 13 13 13 13 13 13 13 12 12 12 11 11
16 16 16 16 15 15 15 15 15 14 14 14 14 14 14 14 14 14 14 14 13 13 13 13 13 13 13 12 12 12 12 12 12 12 12 12 11 11
16 16 15 15 15 15 15 15 14 14 14 14 14 13 13 13 13 13 13 13 13 13 13 13 13 12 12 12 12 12 12 12 12 12 11 11 11 11
15 15 15 15 15 15 14 14 14 14 14 14 13 13 13 13 13 13 13 12 12 12 12 12 12 12 12 12 12 11 11 11 11 11 11 11 11 11
15 15 14 14 14 14 14 14 14 13 13 13 13 13 12 12 12 12 12 12 12 12 12 11 11 11 11 11 11 11 11 11 11 11 11 11 10 10
15 14 14 14 14 13 13 13 13 13 13 13 12 12 12 12 11 11 11 11 11 11 11 11 11 11 10 10 11 11 11 11 11 10 10 10 10 10
14 14 14 13 13 13 13 13 13 13 12 12 12 12 11 11 11 11 11 11 11 11 11 11 11 10 10 10 10 11 11 10 10 10 10 10 10 10
14 13 13 13 13 13 13 13 12 12 12 12 11 11 11 11 11 10 10 10 10 10 10 10 10 10 10 10 10 10 10 10 10 10 10 10 10 9
13 13 13 13 13 13 13 12 12 12 12 11 11 11 11 10 10 10 10 10 10 10 10 10 10 10 10 10 10 10 10 10 10 10 10 10 9 9
13 13 12 12 12 12 12 12 12 11 11 11 11 10 10 10 10 10 10 9 9 9 9 9 9 9 9 9 9 9 9 9 9 9 9 9 9 9
Wind_Speed
2 2 2 2 2 2 1 1 1 2 2 1 1 1 3 4 5 5 6 10 10 9 8 7 7 6 5 5 5 5 5 5 5 5 5 5 6 6
1 2 2 2 2 2 2 2 1 2 2 1 2 1 1 2 5 5 5 10 11 11 11 10 9 8 7 7 6 6 6 6 6 7 6 6 7 7
2 2 2 2 3 3 2 2 2 2 2 2 0 1 2 1 2 4 5 7 9 14 14 13 12 11 10 9 8 8 7 7 8 8 8 8 8 8
2 2 2 2 2 2 3 3 3 2 2 3 2 2 2 3 3 4 4 5 6 12 16 16 15 14 13 12 11 10 9 9 9 9 9 9 9 9
2 2 3 2 2 2 3 3 3 4 2 3 3 2 2 2 2 3 4 3 6 8 14 15 16 16 15 14 13 12 11 10 10 10 9 10 10 10
2 2 2 2 3 3 3 3 4 4 3 3 3 2 2 2 2 3 4 3 5 5 6 9 13 16 16 15 15 14 13 12 11 11 11 11 11 11
3 3 3 3 3 2 3 2 3 3 4 3 3 3 2 1 2 2 4 3 4 4 2 4 6 8 10 14 16 15 14 14 14 13 13 12 12 12
4 4 4 4 4 5 5 5 4 4 4 4 4 3 3 3 2 3 3 3 4 2 2 4 4 5 7 8 12 15 15 15 15 14 14 14 13 13
4 4 6 4 3 3 5 6 6 6 6 4 5 5 4 3 3 4 4 5 5 4 4 5 4 4 4 7 10 13 14 14 14 15 15 14 14 14
5 5 4 4 4 3 4 4 5 6 7 6 6 7 6 4 4 5 6 6 6 5 4 5 5 4 4 4 10 13 13 13 14 14 14 14 14 14
7 6 5 4 3 3 3 5 5 5 8 8 8 8 9 9 6 4 4 5 6 5 3 4 5 4 4 4 7 12 13 14 14 14 13 13 13 11
5 4 5 5 5 4 4 5 6 6 6 5 6 7 7 7 8 6 5 6 6 5 3 3 5 3 4 3 3 5 8 11 13 13 13 12 11 8
5 4 3 5 6 7 6 7 8 7 7 6 6 5 4 4 4 5 6 6 6 6 4 3 4 4 4 4 3 3 4 4 6 7 11 12 11 9
5 4 2 4 6 8 8 10 10 8 6 6 6 5 5 5 4 5 7 7 8 8 7 5 5 5 5 5 4 3 3 4 4 4 5 8 10 12
5 4 5 7 7 7 10 11 8 6 6 6 6 6 5 5 4 4 6 7 8 9 8 7 6 6 5 6 5 4 4 3 4 4 4 5 6 6
6 6 7 8 7 7 7 6 6 6 6 6 6 5 5 4 4 4 4 4 5 6 6 7 6 5 6 6 6 6 4 3 3 3 4 4 5 7
5 5 5 4 4 5 4 4 4 4 5 5 5 4 4 4 4 3 4 4 4 5 5 4 4 4 5 6 6 6 5 4 4 4 4 4 4 5
3 5 5 5 5 5 5 5 5 4 4 4 4 4 4 4 5 4 4 4 5 5 5 4 4 4 4 5 6 5 5 4 4 4 4 4 4 4
4 6 5 5 5 5 5 5 5 4 3 3 3 3 3 4 5 5 4 4 5 5 4 4 4 4 6 7 6 5 5 4 4 4 4 4 5 5
5 5 5 5 5 5 4 4 4 3 2 3 3 3 3 4 5 5 5 5 5 5 5 4 3 4 6 7 5 5 7 5 4 5 4 3 3 4
5 5 5 5 4 4 4 3 3 3 3 3 3 3 4 4 5 5 5 6 6 5 6 5 5 7 6 4 5 4 4 6 6 4 4 4 4 4
5 5 5 5 4 3 3 3 3 3 3 3 3 3 3 4 5 6 5 5 5 5 6 5 5 4 4 5 6 6 4 4 5 7 7 6 4 5
4 5 4 3 3 3 3 3 3 3 2 3 3 3 4 4 4 5 5 5 5 6 6 6 4 4 5 5 5 5 5 5 3 3 4 6 9 9
Wind_Direction
285 291 287 299 307 304 288 271 281 285 278 233 265 120 120 118 153 178 172 186 193 197 196 200 206 212 215 219 221 220 222 221 220 221 225 227 225 224
244 287 299 307 317 308 312 295 285 281 289 242 222 163 137 167 183 209 197 191 200 201 202 205 209 212 213 217 220 223 225 226 226 223 222 225 226 228
257 250 250 269 298 308 304 291 283 288 280 282 237 174 178 201 192 226 212 193 201 207 210 210 212 213 215 219 223 226 230 232 232 229 230 230 228 226
252 268 268 265 278 291 303 303 298 281 260 277 269 226 215 210 212 233 239 224 206 210 211 213 214 215 217 221 222 225 229 233 234 232 233 232 232 229
242 250 261 265 277 284 286 294 299 297 273 269 270 251 237 237 231 251 265 256 247 224 209 216 219 219 219 221 222 223 226 229 231 232 234 235 234 233
263 260 271 267 275 285 279 286 293 299 288 274 270 272 249 244 234 254 267 254 256 248 212 215 219 221 223 224 225 224 226 229 231 232 234 235 234 233
252 249 251 240 243 261 285 296 298 299 296 289 283 283 278 275 263 265 277 271 260 251 228 224 210 214 221 228 230 229 226 226 228 230 233 234 234 233
243 249 246 227 228 233 255 268 264 267 280 287 286 282 283 277 270 278 286 290 285 265 261 254 222 217 214 216 220 221 224 226 228 229 232 233 233 234
246 247 257 249 216 230 240 251 256 255 248 261 277 285 285 282 280 281 279 279 274 273 274 269 254 244 224 227 213 210 216 223 228 230 231 231 232 233
246 244 241 241 257 249 253 254 252 254 249 244 255 267 272 270 260 263 273 276 273 269 247 261 265 256 254 219 209 206 212 218 224 227 230 231 231 232
246 245 240 229 233 235 256 268 270 267 260 255 250 254 260 257 253 274 277 280 280 277 251 251 263 262 246 231 221 212 215 219 221 222 224 227 228 227
251 242 231 224 218 214 238 259 268 275 283 279 267 263 260 256 244 239 258 269 276 278 262 261 270 273 271 243 226 209 215 223 224 225 225 224 220 218
266 250 232 216 225 231 239 252 257 269 275 268 263 256 251 249 240 237 242 251 263 269 275 270 274 274 266 275 265 232 202 204 213 224 225 222 214 209
277 280 263 237 238 242 245 252 263 271 268 267 266 260 254 246 241 238 243 244 248 252 260 264 267 270 276 282 280 260 237 207 199 210 213 213 218 220
280 302 292 265 259 255 251 252 255 257 258 262 262 262 260 257 246 241 244 245 251 259 262 258 256 259 259 268 274 268 270 247 211 210 210 209 210 213
265 271 260 249 253 261 263 252 244 248 257 264 267 266 268 265 258 257 256 253 257 263 259 252 249 249 256 264 266 270 267 257 237 232 227 226 211 205
256 252 253 254 251 254 257 253 247 245 253 264 273 278 280 277 274 279 278 276 266 272 281 273 259 252 258 267 266 266 266 264 252 241 249 245 229 213
255 259 260 261 265 264 263 262 257 256 255 252 258 263 277 287 285 281 278 273 271 270 270 268 263 272 276 272 258 262 266 271 272 253 245 245 243 229
243 260 263 266 268 269 269 268 268 267 258 261 262 264 276 284 286 284 281 279 278 277 276 277 268 258 272 278 272 257 259 264 257 256 247 241 244 238
251 261 267 269 270 269 272 275 277 276 272 274 275 273 271 275 278 280 280 279 282 282 280 274 268 264 262 269 274 275 251 247 246 245 249 253 252 237
266 265 268 273 272 272 274 274 271 268 273 271 270 271 273 275 279 282 281 283 279 277 280 279 271 264 265 270 272 268 257 250 248 243 235 244 251 241
270 269 269 268 272 279 279 275 274 273 270 272 281 285 285 282 282 284 283 284 282 281 281 277 270 267 263 265 272 276 271 265 255 252 241 234 229 231
267 271 273 276 282 280 282 293 296 297 300 294 296 294 294 292 286 284 284 282 285 286 287 285 280 275 272 268 273 277 277 269 263 257 261 251 243 242
Height
1542 1542 1542 1542 1542 1541 1541 1541 1541 1539 1538 1537 1536 1535 1535 1533 1532 1531 1530 1529 1528 1527 1526 1526 1525 1524 1523 1522 1521 1521 1521 1522 1522 1522 1523 1523 1524 1525
1541 1541 1540 1540 1540 1539 1539 1539 1538 1538 1536 1535 1535 1534 1533 1532 1531 1530 1528 1527 1527 1525 1525 1524 1523 1522 1521 1520 1520 1519 1519 1519 1519 1520 1520 1520 1521 1522
1539 1539 1539 1538 1538 1537 1537 1536 1536 1536 1534 1533 1533 1532 1531 1530 1529 1528 1526 1525 1524 1523 1523 1522 1521 1520 1519 1518 1518 1517 1517 1516 1516 1517 1517 1518 1518 1519
1536 1536 1536 1536 1536 1535 1535 1534 1534 1534 1533 1531 1530 1530 1529 1528 1527 1525 1524 1523 1522 1521 1520 1519 1518 1518 1517 1516 1516 1515 1514 1514 1514 1514 1514 1514 1515 1515
1534 1534 1534 1534 1533 1533 1532 1532 1532 1531 1530 1529 1528 1527 1526 1525 1524 1523 1522 1521 1520 1518 1517 1516 1516 1515 1514 1513 1513 1512 1511 1511 1511 1511 1511 1511 1511 1512
1532 1531 1531 1531 1530 1530 1530 1529 1529 1528 1527 1527 1525 1524 1523 1522 1521 1520 1519 1518 1517 1516 1514 1513 1512 1512 1511 1510 1509 1508 1508 1508 1508 1507 1507 1507 1508 1508
1529 1529 1528 1528 1528 1527 1527 1526 1526 1525 1524 1524 1522 1521 1520 1519 1518 1517 1516 1514 1513 1513 1511 1510 1509 1508 1507 1506 1506 1505 1504 1504 1504 1503 1503 1503 1503 1503
1526 1525 1525 1525 1524 1524 1523 1523 1523 1522 1521 1520 1519 1518 1517 1516 1515 1514 1513 1512 1510 1509 1508 1506 1506 1504 1503 1502 1502 1501 1501 1500 1499 1499 1499 1499 1499 1499
1522 1522 1522 1522 1521 1520 1519 1519 1519 1518 1518 1517 1515 1514 1514 1513 1512 1511 1510 1508 1506 1506 1505 1502 1502 1500 1499 1498 1498 1497 1496 1495 1495 1494 1494 1494 1494 1494
1519 1518 1518 1517 1517 1517 1516 1515 1514 1513 1513 1512 1511 1510 1510 1509 1508 1507 1506 1504 1503 1502 1501 1499 1497 1496 1495 1494 1493 1492 1491 1491 1490 1489 1489 1489 1488 1488
1515 1515 1514 1514 1513 1513 1512 1511 1509 1509 1508 1508 1507 1506 1505 1504 1504 1503 1501 1500 1498 1497 1496 1495 1493 1491 1490 1489 1488 1487 1486 1485 1485 1484 1484 1484 1483 1483
1511 1510 1510 1509 1509 1508 1507 1506 1505 1504 1504 1502 1501 1500 1500 1499 1498 1498 1497 1495 1494 1492 1491 1490 1489 1488 1485 1484 1483 1482 1481 1480 1479 1479 1478 1478 1478 1477
1507 1506 1505 1505 1504 1504 1503 1502 1501 1500 1499 1498 1497 1495 1494 1493 1493 1492 1492 1491 1489 1487 1487 1486 1484 1483 1482 1479 1478 1477 1476 1475 1474 1473 1473 1472 1472 1472
1502 1502 1501 1500 1500 1499 1498 1497 1497 1496 1494 1493 1492 1491 1490 1489 1488 1487 1486 1485 1484 1483 1482 1482 1480 1478 1477 1475 1473 1472 1471 1470 1469 1468 1467 1466 1466 1466
1497 1497 1496 1496 1495 1494 1493 1492 1491 1490 1489 1488 1487 1486 1485 1484 1483 1482 1480 1479 1478 1477 1476 1475 1475 1474 1473 1470 1468 1467 1466 1465 1464 1463 1462 1461 1461 1460
1492 1492 1492 1491 1490 1489 1488 1487 1486 1485 1484 1483 1482 1481 1480 1479 1478 1477 1476 1474 1473 1471 1470 1469 1469 1468 1467 1465 1464 1462 1461 1460 1459 1458 1457 1456 1455 1454
1488 1488 1487 1486 1485 1484 1483 1482 1481 1480 1479 1478 1477 1475 1475 1474 1473 1472 1471 1469 1468 1466 1464 1464 1464 1463 1462 1461 1459 1457 1456 1455 1454 1453 1452 1451 1450 1449
1485 1483 1482 1481 1480 1479 1478 1477 1476 1475 1474 1473 1472 1471 1469 1468 1468 1467 1466 1464 1463 1461 1460 1459 1459 1457 1456 1454 1454 1452 1450 1449 1448 1448 1447 1446 1445 1445
1480 1478 1478 1477 1476 1476 1474 1473 1472 1471 1470 1468 1467 1466 1465 1463 1463 1462 1460 1459 1458 1456 1455 1455 1454 1452 1450 1448 1446 1447 1446 1444 1443 1442 1442 1441 1440 1440
1475 1474 1473 1472 1472 1471 1470 1469 1468 1467 1465 1464 1463 1461 1460 1458 1457 1456 1455 1454 1452 1451 1450 1449 1448 1447 1445 1444 1441 1440 1440 1439 1438 1437 1436 1436 1435 1436
1471 1470 1469 1468 1467 1467 1465 1464 1463 1462 1461 1459 1458 1456 1455 1453 1452 1451 1450 1449 1448 1446 1445 1444 1443 1442 1441 1439 1437 1434 1434 1434 1433 1432 1431 1431 1430 1430
1466 1465 1465 1464 1464 1462 1461 1460 1459 1457 1456 1454 1453 1451 1450 1448 1447 1446 1445 1443 1442 1441 1440 1438 1437 1436 1435 1433 1431 1430 1428 1428 1427 1427 1426 1426 1425 1424
1462 1461 1460 1460 1459 1458 1457 1455 1454 1453 1451 1450 1448 1446 1445 1444 1442 1441 1440 1438 1437 1436 1434 1433 1432 1430 1429 1428 1427 1425 1424 1423 1421 1420 1420 1420 1420 1420